Flag Weather past 2 weeks in Kawasaki, Japan

Now
50 °F

Sprinkles. Partly sunny.


Feels Like: 42 °F
Forecast: 53 / 67 °F
Wind: 28 mph from North

Location: Tokyo International Airport

Current Time: Nov 26, 2014 at 4:50:16 PM

Latest Report: Nov 26, 2014 at 4:00 PM


Visibility: 5 mi

Pressure: 29.86 "Hg

Humidity: 94%

Dew point: 48 °F

Location of KawasakiLocation

Historic Weather in Kawasaki — Graph

°F

Kawasaki temperature yesterday

Maximum temperature yesterday: 55 °F (at 7:00 AM)
Minimum temperature yesterday: 50 °F (at 10:30 PM)
Average temperature yesterday: 53 °F

Past Weeks' High & Low Weather Summary

 TemperatureHumidityPressure
High68 °F (Nov 13, 11:30 AM)94% (Nov 12, 5:00 AM)30.33 "Hg (Nov 12, 5:00 AM)
Low46 °F (Nov 14, 6:30 AM)29% (Nov 13, 6:30 PM)29.56 "Hg (Nov 13, 4:00 AM)
Average55 °F62%30.05 "Hg
* Reported Nov 11 3:00 PM — Nov 26 3:30 PM, Kawasaki, Weather by CustomWeather, © 2014

Note: Actual official high and low records may vary slightly from our data, if they occured in-between our weather recording intervals... More about our weather records

Advertising

Kawasaki weather history for previous 24 hours

 ConditionsComfort  
Time TempWeatherWind HumidityBarometerVisibility
3:30 PM
Nov 26
50 °FSprinkles. Partly sunny.25 mph88%29.86 "Hg4 mi
3:00 PM50 °FSprinkles. Partly sunny.24 mph94%29.86 "Hg5 mi
2:30 PM50 °FSprinkles. Partly sunny.24 mph94%29.86 "Hg4 mi
2:00 PM50 °FSprinkles. Partly sunny.23 mph94%29.86 "Hg4 mi
1:30 PM50 °FRain showers. Fog.22 mph94%29.86 "Hg2 mi
1:00 PM50 °FSprinkles. Fog.20 mph88%29.86 "Hg2 mi
12:30 PM50 °FSprinkles. Fog.20 mph88%29.89 "Hg2 mi
12:00 PM48 °FSprinkles. Fog.22 mph94%29.89 "Hg2 mi
11:30 AM50 °FSprinkles. Fog.24 mph94%29.89 "Hg2 mi
11:00 AM50 °FSprinkles. Fog.23 mph94%29.92 "Hg2 mi
10:50 AM50 °FRain showers. Fog.21 mph88%29.95 "Hg2 mi
10:30 AM50 °FLots of rain. Fog.22 mph88%29.95 "Hg2 mi
10:00 AM48 °FRain showers. Fog.22 mph94%29.98 "Hg2 mi
9:30 AM48 °FLots of rain. Fog.20 mph94%29.95 "Hg2 mi
9:00 AM48 °FRain showers. Partly sunny.22 mph94%29.98 "Hg4 mi
8:30 AM48 °FSprinkles. Fog.21 mph94%29.98 "Hg4 mi
8:00 AM48 °FSprinkles. Fog.20 mph94%29.98 "Hg4 mi
7:30 AM48 °FSprinkles. Partly sunny.20 mph94%29.98 "Hg4 mi
7:00 AM48 °FSprinkles. Broken clouds.20 mph94%29.98 "Hg4 mi
6:30 AM48 °FSprinkles. Fog.20 mph94%29.98 "Hg3 mi
6:00 AM48 °FSprinkles. Fog.18 mph94%29.98 "Hg2 mi
5:47 AM48 °FRain showers. Fog.17 mph94%29.98 "Hg3 mi
5:30 AM48 °FRain showers. Passing clouds.17 mph94%29.98 "Hg4 mi
5:00 AM48 °FSprinkles. Passing clouds.21 mph94%29.95 "Hg4 mi
4:48 AM50 °FSprinkles. Fog.20 mph94%29.95 "Hg3 mi
4:30 AM50 °FSprinkles. Passing clouds.20 mph88%29.95 "Hg4 mi
4:00 AM50 °FSprinkles. Passing clouds.17 mph94%29.95 "Hg4 mi
3:30 AM50 °FRain showers. Fog.22 mph94%29.95 "Hg3 mi
3:00 AM50 °FRain showers. Fog.20 mph94%29.95 "Hg3 mi
2:30 AM50 °FRain showers. Fog.20 mph94%29.95 "Hg3 mi
2:00 AM50 °FRain showers. Partly cloudy.17 mph94%29.95 "Hg4 mi
1:30 AM50 °FSprinkles. Partly cloudy.17 mph94%29.95 "Hg5 mi
1:00 AM50 °FSprinkles. Partly cloudy.17 mph94%29.98 "Hg4 mi
12:30 AM50 °FRain showers. Fog.17 mph94%29.95 "Hg2 mi
12:00 AM50 °FRain showers. Fog.17 mph94%29.98 "Hg2 mi
11:30 PM
Nov 25
50 °FRain showers. Fog.16 mph94%29.98 "Hg3 mi
11:00 PM50 °FLight rain. Partly cloudy.15 mph94%29.98 "Hg4 mi
10:30 PM50 °FLight rain. Fog.16 mph94%29.98 "Hg3 mi
10:00 PM52 °FLight rain. Fog.15 mph94%29.98 "Hg3 mi
9:48 PM52 °FLight rain. Fog.15 mph94%29.98 "Hg2 mi
9:30 PM52 °FLight rain. Fog.13 mph94%29.98 "Hg2 mi
9:00 PM52 °FLight rain. Fog.14 mph94%29.98 "Hg2 mi
8:30 PM52 °FLight rain. Partly cloudy.15 mph94%29.98 "Hg6 mi
8:00 PM52 °FLight rain. Passing clouds.14 mph94%29.98 "Hg4 mi
7:30 PM52 °FLight rain. Passing clouds.17 mph94%29.98 "Hg6 mi
7:00 PM52 °FLight rain. Passing clouds.16 mph94%29.98 "Hg6 mi
6:49 PM52 °FLight rain. Passing clouds.15 mph94%29.98 "HgN/A
6:30 PM52 °FLight rain. Partly cloudy.16 mph88%29.98 "HgN/A
6:00 PM54 °FPartly cloudy.17 mph88%29.98 "HgN/A
5:30 PM54 °FLight rain. Passing clouds.24 mph88%29.95 "HgN/A
5:00 PM54 °FLight rain. Passing clouds.20 mph88%29.95 "HgN/A
4:30 PM54 °FLight rain. Passing clouds.17 mph88%29.95 "HgN/A
4:00 PM54 °FLight rain. Partly sunny.15 mph94%29.95 "Hg5 mi
Weather by CustomWeather, © 2014

See weather overviewHow to use our weather pages